Printer-friendly version
Follow the MPC on Twitter Follow the MPC on Facebook The MPC blog
Minor Planet Center

MPEC 2009-B29 : 2009 BM2

The following Minor Planet Electronic Circular may be linked-to from your own Web pages, but must not otherwise be redistributed electronically.

A form allowing access to any MPEC is at the bottom of this page.


Read MPEC 2009-B28 Read MPEC 2009-B30


M.P.E.C. 2009-B29                                Issued 2009 Jan. 20, 19:05 UT

     The Minor Planet Electronic Circulars contain information on unusual
         minor planets and routine data on comets.  They are published
   on behalf of Commission 20 of the International Astronomical Union by the
          Minor Planet Center, Smithsonian Astrophysical Observatory,
                          Cambridge, MA 02138, U.S.A.

             Prepared using the Tamkin Foundation Computer Network

                              MPC@CFA.HARVARD.EDU
          URL http://www.cfa.harvard.edu/iau/mpc.html  ISSN 1523-6714

                                   2009 BM2

Observations:
     K09B02M* C2009 01 18.33285 09 11 57.55 +03 51 26.5          17.7 V EB029703
     K09B02M  C2009 01 18.34003 09 11 58.88 +03 52 09.6          17.8 V EB029703
     K09B02M  C2009 01 18.34737 09 12 00.21 +03 52 56.1          17.8 V EB029703
     K09B02M  C2009 01 18.35469 09 12 01.62 +03 53 41.1          17.6 V EB029703
     K09B02M  C2009 01 18.39810 09 12 09.73 +03 58 09.4          18.0 V EB029703
     K09B02M  C2009 01 18.39835 09 12 09.82 +03 58 11.7          18.0 R EB029854
     K09B02M  C2009 01 18.39931 09 12 10.03 +03 58 18.2          18.1 R EB029854
     K09B02M  C2009 01 18.40123 09 12 10.40 +03 58 29.7          17.9 R EB029854
     K09B02M  C2009 01 18.40586 09 12 11.17 +03 58 57.6          18.1 V EB029703
     K09B02M  C2009 01 18.42920 09 12 15.51 +04 01 20.7          17.9 R EB029H01
     K09B02M  C2009 01 18.43216 09 12 16.05 +04 01 39.5          17.9 R EB029H01
     K09B02M  C2009 01 18.43521 09 12 16.63 +04 01 58.3          17.9 R EB029H01
     K09B02M  C2009 01 18.43880 09 12 17.31 +04 02 20.6          17.7 R EB029H01
     K09B02M  C2009 01 18.44318 09 12 18.13 +04 02 47.9          17.6 R EB029H01
     K09B02M  C2009 01 18.44909 09 12 19.25 +04 03 24.4          17.8 R EB029H01
     K09B02M  C2009 01 18.91169 09 13 55.12 +04 51 30.7                 EB029J95
     K09B02M  C2009 01 18.91451 09 13 55.67 +04 51 49.2                 EB029J95
     K09B02M  C2009 01 18.91736 09 13 56.25 +04 52 06.7          17.6 R EB029J95
     K09B02M  C2009 01 18.93076 09 13 59.22 +04 53 38.7          17.6 C EB029493
     K09B02M  C2009 01 18.93259 09 13 59.58 +04 53 50.1          17.7 C EB029493
     K09B02M  C2009 01 18.93349 09 13 59.75 +04 53 55.9          17.6 C EB029493
     K09B02M  C2009 01 19.32561 09 15 18.83 +05 35 38.5          17.2 R EB029H01
     K09B02M  C2009 01 19.33079 09 15 19.82 +05 36 11.7          17.2 R EB029H01
     K09B02M  C2009 01 19.33490 09 15 20.61 +05 36 38.2          17.3 R EB029H01
     K09B02M  C2009 01 19.33946 09 15 21.48 +05 37 07.4          17.2 R EB029H01
     K09B02M %C2009 01 19.43454 09 15 39.81 +05 47 19.5          17.4 R EB029H06
     K09B02M %C2009 01 19.44492 09 15 41.75 +05 48 26.6          17.7 R EB029H06
     K09B02M %C2009 01 19.45578 09 15 43.88 +05 49 35.6          17.5 R EB029H06
     K09B02M %C2009 01 19.48052 09 15 48.74 +05 52 15.3          17.6 R EB029H06
     K09B02M  C2009 01 20.34775 09 18 52.02 +07 27 13.4          17.8 V EB029G96
     K09B02M  C2009 01 20.35841 09 18 54.10 +07 28 24.6          17.8 V EB029G96
     K09B02M  C2009 01 20.36506 09 18 55.21 +07 29 04.8          17.7   EB029H05
     K09B02M  C2009 01 20.36930 09 18 56.26 +07 29 37.3          17.8 V EB029G96
     K09B02M  C2009 01 20.37195 09 18 56.67 +07 29 50.7          17.7   EB029H05
     K09B02M  C2009 01 20.37891 09 18 57.94 +07 30 37.0          17.6   EB029H05
     K09B02M  C2009 01 20.38012 09 18 58.42 +07 30 49.5          17.8 V EB029G96
     K09B02M  C2009 01 20.40490 09 19 03.21 +07 33 34.2          17.7 R EB029H01
     K09B02M  C2009 01 20.41380 09 19 04.98 +07 34 33.7          17.6 R EB029H01
     K09B02M  C2009 01 20.42311 09 19 06.84 +07 35 35.8          17.7 R EB029H01
     K09B02M  C2009 01 20.61221 09 19 48.89 +07 56 43.5          16.9 V EB029900
     K09B02M  C2009 01 20.61599 09 19 49.65 +07 57 09.3          17.3 V EB029900

Observer details:
493 Calar Alto.  Observer F. Hormuth.  1.23-m reflector + CCD.
703 Catalina Sky Survey.  Observer E. Beshore.  Measurers E. C. Beshore,
    A. Boattini, G. J. Garradd, A. R. Gibbs, A. D. Grauer, R. E. Hill,
    R. A. Kowalski, S. M. Larson, R. H. McNaught.  0.68-m Schmidt + CCD.
854 Sabino Canyon Observatory, Tucson.  Observer J. E. McGaha.  0.36-m f/10.0
    Schmidt-Cassegrain + CCD.
900 Moriyama.  Observer Y. Ikari.  0.26-m f/7.0 reflector + CCD.
G96 Mt. Lemmon Survey.  Observer S. M. Larson.  Measurers E. C. Beshore,
    A. Boattini, G. J. Garradd, A. R. Gibbs, A. D. Grauer, R. E. Hill,
    R. A. Kowalski, S. M. Larson, R. H. McNaught.  1.5-m reflector + CCD.
H01 Magdalena Ridge Observatory, Socorro.  Observers W. H. Ryan, E. V. Ryan.
    Measurer W. H. Ryan.  2.4-m f/8.9 reflector + CCD.
H05 Edmund Kline Observatory, Deer Trail.  Observer J. Gafford.  0.46-m f/4.5
    reflector + CCD.
H06 RAS Observatory, Mayhill.  Observers E. Guido, G. Sostero, P. Camilleri.
    0.25-m f/3.4 reflector + CCD.
J95 Great Shefford.  Observer P. Birtwhistle.  0.40-m f/6.0 Schmidt-Cassegrain
    + CCD.

Orbital elements:
2009 BM2                                                 Earth MOID = 0.2025 AU
Epoch 2008 Nov. 30.0 TT = JDT 2454800.5                 MPC
M 345.74036              (2000.0)            P               Q
n   0.21802694     Peri.    9.94461     -0.71705713     -0.60958812
a   2.7339838      Node   126.94226     +0.60692902     -0.78449807
e   0.5672084      Incl.   25.01640     +0.34273348     +0.11386440
P   4.52           H   19.7           G   0.15           U   7
Residuals in seconds of arc
090118 703  0.4-  0.0     090118 H01  0.1+  0.1+    090119 H06  0.4-  0.8-
090118 703  0.6-  1.2-    090118 J95  0.1+  0.1-    090120 G96  0.0   0.0
090118 703  1.2-  0.1-    090118 J95  0.0   0.5+    090120 G96  0.4-  0.0
090118 703  0.5-  0.3-    090118 J95  0.3+  0.0     090120 H05  0.1+  0.2+
090118 703  0.4-  0.3-    090118 493  0.0   0.0     090120 G96  0.3-  0.0
090118 854  0.2+  0.4+    090118 493  0.1+  0.2-    090120 H05  1.4+  0.1+
090118 854  0.7+  1.0+    090118 493  0.0   0.1-    090120 H05  0.3-  0.0
090118 854  0.8+  0.6+    090119 H01  0.0   0.1+    090120 G96  0.0   0.0
090118 703  0.6-  0.1-    090119 H01  0.0   0.0     090120 H01  0.0   0.3+
090118 H01  0.4+  0.5-    090119 H01  0.0   0.1+    090120 H01  0.1-  0.4+
090118 H01  0.1+  0.0     090119 H01  0.1-  0.0     090120 H01  0.0   0.3+
090118 H01  0.2+  0.1-    090119 H06  0.6+  0.3-    090120 900  0.2-  0.4-
090118 H01  0.2+  0.0     090119 H06  0.6-  0.1-    090120 900  0.2-  0.1-
090118 H01  0.1+  0.2+    090119 H06  0.4-  1.1-

Ephemeris:
2009 BM2                 a,e,i = 2.73, 0.57, 25                  q = 1.1832
Date    TT    R. A. (2000) Decl.     Delta      r     Elong.  Phase     V
2009 01 19    09 14.19   +05 01.2    0.228    1.197   157.1    18.7    17.8
2009 01 29    09 53.38   +25 07.9    0.208    1.185   162.8    14.2    17.5
2009 02 08    10 42.67   +44 00.4    0.229    1.185   146.8    27.1    18.1
2009 02 18    11 35.51   +55 28.9    0.279    1.196   132.8    37.3    18.8
2009 02 28    12 20.09   +60 39.3    0.344    1.219   124.4    42.1    19.5
2009 03 10    12 49.76   +62 10.7    0.415    1.252   119.7    43.6    20.0
2009 03 20    13 05.86   +61 40.5    0.488    1.294   117.2    43.2    20.4
2009 03 30    13 12.99   +59 51.9    0.562    1.344   116.0    41.9    20.7
2009 04 09    13 15.87   +57 04.7    0.639    1.400   115.4    40.3    21.0
2009 04 19    13 17.58   +53 33.4    0.718    1.461   115.0    38.5    21.3
2009 04 29    13 19.81   +49 28.9    0.802    1.526   114.5    36.9    21.6
2009 05 09    13 23.41   +45 02.4    0.893    1.593   113.6    35.5    21.9

Timothy B. Spahr             (C) Copyright 2009 MPC           M.P.E.C. 2009-B29

Read MPEC 2009-B28 Read MPEC 2009-B30


MPEC number:

Enter an MPEC number in one of the following forms:

  • 1997-B01 (the full form)
  • J97B01 (the packed version of the full form)
  • B01 (the abbreviated form)

Valid HTML 4.01!